When you browse on this site, cookies collect data to enhance your experience and personalize the content and advertising you see.
Visit our Privacy Policy to learn more. By continuing to use the site, you agree to this use of cookies and data.

Hourly Weather Kaposvar

Today, 6 July, Monday

Time Temperature Precipitation Wind Pressure Humidity
00:00 +20°C° 0 mm 1 mps 746 mmHg 69%
01:00 +18°C° 0 mm 0 mps 745 mmHg 69%
02:00 +18°C° 0 mm 0 mps 745 mmHg 70%
03:00 +18°C° 0 mm 0 mps 745 mmHg 71%
04:00 +17°C° 0 mm 0 mps 745 mmHg 72%
05:00 +21°C° 0 mm 1 mps 745 mmHg 68%
06:00 +23°C° 0 mm 1 mps 745 mmHg 64%
07:00 +25°C° 0 mm 1 mps 745 mmHg 57%
08:00 +27°C° 0 mm 1 mps 745 mmHg 53%
09:00 +29°C° 0 mm 1 mps 744 mmHg 49%
10:00 +30°C° 0 mm 1 mps 744 mmHg 45%
11:00 +31°C° 0 mm 1 mps 744 mmHg 44%
12:00 +31°C° 0 mm 1 mps 743 mmHg 43%
13:00 +32°C° 0 mm 2 mps 743 mmHg 43%
14:00 +31°C° 0 mm 2 mps 742 mmHg 45%
15:00 +31°C° 0 mm 2 mps 742 mmHg 47%
16:00 +31°C° 0 mm 2 mps 741 mmHg 49%
17:00 +29°C° 0 mm 3 mps 742 mmHg 54%
18:00 +28°C° 0 mm 4 mps 742 mmHg 60%
19:00 +26°C° 0 mm 5 mps 742 mmHg 65%
20:00 +23°C° 0.2 mm 6 mps 743 mmHg 61%
21:00 +21°C° 0.2 mm 8 mps 744 mmHg 58%
22:00 +18°C° 0.2 mm 9 mps 744 mmHg 54%
23:00 +17°C° 0 mm 9 mps 745 mmHg 57%

Tomorrow, 7 July, Tuesday

Time Temperature Precipitation Wind Pressure Humidity
00:00 +17°C° 0 mm 9 mps 746 mmHg 60%
01:00 +16°C° 0 mm 9 mps 746 mmHg 63%
02:00 +15°C° 0.4 mm 8 mps 747 mmHg 71%
03:00 +14°C° 0.4 mm 7 mps 747 mmHg 80%
04:00 +13°C° 0.4 mm 6 mps 748 mmHg 88%
05:00 +13°C° 0.5 mm 5 mps 748 mmHg 87%
06:00 +14°C° 0.5 mm 5 mps 749 mmHg 85%
07:00 +14°C° 0.5 mm 4 mps 749 mmHg 83%
08:00 +16°C° 0 mm 5 mps 749 mmHg 73%
09:00 +19°C° 0 mm 5 mps 749 mmHg 62%
10:00 +21°C° 0 mm 6 mps 749 mmHg 51%
11:00 +21°C° 0 mm 6 mps 749 mmHg 48%
12:00 +22°C° 0 mm 6 mps 749 mmHg 45%
13:00 +23°C° 0 mm 6 mps 749 mmHg 43%
14:00 +23°C° 0 mm 5 mps 749 mmHg 43%
15:00 +23°C° 0 mm 5 mps 748 mmHg 43%
16:00 +23°C° 0 mm 4 mps 748 mmHg 43%
17:00 +22°C° 0 mm 3 mps 748 mmHg 49%
18:00 +20°C° 0 mm 2 mps 748 mmHg 56%
19:00 +19°C° 0 mm 2 mps 748 mmHg 62%
20:00 +19°C° 0 mm 1 mps 748 mmHg 64%
21:00 +16°C° 0 mm 1 mps 749 mmHg 66%
22:00 +15°C° 0 mm 1 mps 749 mmHg 68%
23:00 +14°C° 0 mm 1 mps 749 mmHg 70%

Day after tomorrow, 8 July, Wednesday

Time Temperature Precipitation Wind Pressure Humidity
00:00 +14°C° 0 mm 1 mps 749 mmHg 72%
01:00 +12°C° 0 mm 0 mps 749 mmHg 74%
02:00 +12°C° 0 mm 0 mps 749 mmHg 74%
03:00 +12°C° 0 mm 0 mps 749 mmHg 75%
04:00 +11°C° 0 mm 0 mps 749 mmHg 75%
05:00 +14°C° 0 mm 0 mps 749 mmHg 69%
06:00 +16°C° 0 mm 0 mps 749 mmHg 63%
07:00 +18°C° 0 mm 0 mps 749 mmHg 56%
08:00 +20°C° 0 mm 0 mps 749 mmHg 52%
09:00 +22°C° 0 mm 0 mps 749 mmHg 47%
10:00 +26°C° 0 mm 1 mps 749 mmHg 42%
11:00 +26°C° 0 mm 1 mps 749 mmHg 40%
12:00 +27°C° 0 mm 1 mps 749 mmHg 38%
13:00 +28°C° 0 mm 1 mps 748 mmHg 36%
14:00 +28°C° 0 mm 2 mps 748 mmHg 36%
15:00 +28°C° 0 mm 2 mps 748 mmHg 37%
16:00 +28°C° 0 mm 2 mps 748 mmHg 37%
17:00 +26°C° 0 mm 2 mps 748 mmHg 45%
18:00 +24°C° 0 mm 2 mps 748 mmHg 52%
19:00 +23°C° 0 mm 2 mps 748 mmHg 59%
20:00 +20°C° 0 mm 2 mps 748 mmHg 61%
21:00 +19°C° 0 mm 2 mps 748 mmHg 63%
22:00 +18°C° 0 mm 1 mps 748 mmHg 64%
23:00 +18°C° 0 mm 1 mps 749 mmHg 65%

9 July, Thursday

Time Temperature Precipitation Wind Pressure Humidity
00:00 +18°C° 0 mm 1 mps 749 mmHg 65%
01:00 +16°C° 0 mm 1 mps 749 mmHg 65%
02:00 +16°C° 0 mm 1 mps 749 mmHg 67%
03:00 +14°C° 0 mm 0 mps 749 mmHg 69%
04:00 +14°C° 0 mm 0 mps 749 mmHg 71%
05:00 +16°C° 0 mm 0 mps 749 mmHg 65%
06:00 +18°C° 0 mm 0 mps 750 mmHg 60%
07:00 +20°C° 0 mm 0 mps 750 mmHg 55%
08:00 +24°C° 0 mm 1 mps 750 mmHg 50%
09:00 +26°C° 0 mm 1 mps 750 mmHg 45%
10:00 +28°C° 0 mm 2 mps 751 mmHg 40%
11:00 +29°C° 0 mm 2 mps 750 mmHg 38%
12:00 +30°C° 0 mm 2 mps 750 mmHg 37%
13:00 +31°C° 0 mm 3 mps 750 mmHg 36%
14:00 +31°C° 0 mm 3 mps 749 mmHg 37%
15:00 +30°C° 0 mm 3 mps 749 mmHg 37%
16:00 +30°C° 0 mm 4 mps 748 mmHg 38%
17:00 +29°C° 0 mm 3 mps 748 mmHg 46%
18:00 +27°C° 0 mm 3 mps 748 mmHg 54%
19:00 +25°C° 0 mm 2 mps 748 mmHg 61%
20:00 +24°C° 0 mm 2 mps 748 mmHg 65%
21:00 +21°C° 0 mm 2 mps 748 mmHg 69%
22:00 +20°C° 0 mm 2 mps 748 mmHg 72%
23:00 +20°C° 0 mm 1 mps 748 mmHg 74%

10 July, Friday

Time Temperature Precipitation Wind Pressure Humidity
00:00 +20°C° 0 mm 1 mps 748 mmHg 75%
01:00 +19°C° 0 mm 1 mps 748 mmHg 77%
02:00 +19°C° 0 mm 1 mps 748 mmHg 78%
03:00 +18°C° 0 mm 1 mps 747 mmHg 79%
04:00 +18°C° 0 mm 1 mps 747 mmHg 81%
05:00 +19°C° 0 mm 2 mps 747 mmHg 76%
06:00 +21°C° 0 mm 2 mps 747 mmHg 71%
07:00 +22°C° 0 mm 3 mps 747 mmHg 65%
08:00 +25°C° 0 mm 3 mps 747 mmHg 59%
09:00 +27°C° 0 mm 4 mps 747 mmHg 53%
10:00 +29°C° 0 mm 4 mps 747 mmHg 46%
11:00 +32°C° 0 mm 4 mps 746 mmHg 43%
12:00 +33°C° 0 mm 4 mps 746 mmHg 40%
13:00 +34°C° 0 mm 4 mps 745 mmHg 37%
14:00 +34°C° 0 mm 4 mps 745 mmHg 37%
15:00 +34°C° 0 mm 4 mps 745 mmHg 38%
16:00 +34°C° 0 mm 4 mps 744 mmHg 39%
17:00 +32°C° 0 mm 4 mps 744 mmHg 47%
18:00 +29°C° 0 mm 4 mps 743 mmHg 54%
19:00 +27°C° 0 mm 3 mps 743 mmHg 62%
20:00 +26°C° 0 mm 3 mps 744 mmHg 67%
21:00 +25°C° 0 mm 3 mps 744 mmHg 71%
22:00 +23°C° 0 mm 2 mps 744 mmHg 75%
23:00 +22°C° 0.2 mm 3 mps 745 mmHg 79%

11 July, Saturday

Time Temperature Precipitation Wind Pressure Humidity
00:00 +21°C° 0.2 mm 4 mps 745 mmHg 83%
01:00 +20°C° 0.2 mm 5 mps 745 mmHg 86%
02:00 +19°C° 0.1 mm 5 mps 746 mmHg 87%
03:00 +19°C° 0.1 mm 4 mps 746 mmHg 87%
04:00 +18°C° 0.1 mm 4 mps 746 mmHg 87%
05:00 +19°C° 0 mm 4 mps 747 mmHg 81%
06:00 +20°C° 0 mm 5 mps 747 mmHg 75%
07:00 +21°C° 0 mm 6 mps 747 mmHg 70%
08:00 +22°C° 0 mm 7 mps 748 mmHg 62%
09:00 +23°C° 0 mm 7 mps 748 mmHg 54%
10:00 +24°C° 0 mm 8 mps 749 mmHg 46%
11:00 +23°C° 0 mm 8 mps 749 mmHg 46%
12:00 +22°C° 0 mm 8 mps 750 mmHg 47%
13:00 +21°C° 0 mm 9 mps 750 mmHg 47%
14:00 +21°C° 0 mm 8 mps 750 mmHg 48%
15:00 +20°C° 0 mm 7 mps 750 mmHg 49%
16:00 +19°C° 0 mm 6 mps 750 mmHg 50%
17:00 +17°C° 0 mm 5 mps 751 mmHg 51%
18:00 +18°C° 0 mm 4 mps 751 mmHg 53%
19:00 +17°C° 0 mm 3 mps 751 mmHg 54%
20:00 +16°C° 0 mm 2 mps 751 mmHg 58%
21:00 +16°C° 0 mm 2 mps 752 mmHg 63%
22:00 +16°C° 0 mm 2 mps 752 mmHg 67%
23:00 +16°C° 0 mm 2 mps 752 mmHg 70%
Show more